Regional Weather Roundup
Issued by NWS

Home | Current Version | Previous Version | Text Only | Print | Product List | Glossary Off
Versions: 1 2 3 4 5 6 7 8 9 10 11 12 13 14 15 16 17 18 19 20 21 22 23 24 25 26 27 28 29 30 31 32 33 34 35 36 37 38 39 40 41 42 43 44 45 46 47 48 49 50

000
ASUS43 KLOT 011010
RWRIL

ILLINOIS REGIONAL WEATHER ROUNDUP
NATIONAL WEATHER SERVICE CHICAGO/ROMEOVILLE IL
500 AM CDT FRI AUG 01 2014

NOTE: "FAIR" INDICATES FEW OR NO CLOUDS BELOW 12,000 FEET WITH NO
SIGNIFICANT WEATHER AND/OR OBSTRUCTIONS TO VISIBILITY.

* THESE STATIONS ARE NOT UNDER NWS QUALITY CONTROL. THEY ALSO MAY NOT
  REPORT WEATHER SUCH AS PRECIPITATION OR FOG.

ILZ001-002-007-009-015-016-024-011100-
NORTHWEST ILLINOIS

CITY           SKY/WX    TMP DP  RH WIND       PRES   REMARKS
MOLINE         MOCLDY    65  62  90 S3        30.06S
STERLING*        N/A     57  55  94 CALM      30.07R VSB 3/4
SAVANNA*       MOCLDY    62  60  93 CALM      30.06S FOG
$$

ILZ003-004-008-010-011-017-018-011100-
NORTH CENTRAL ILLINOIS

CITY           SKY/WX    TMP DP  RH WIND       PRES   REMARKS
ROCKFORD       PTCLDY    61  58  90 CALM      30.07S
FREEPORT*      CLEAR     57  55  92 CALM      30.08F
ROCHELLE*      PTCLDY    55  53  92 CALM      30.07S
DE KALB*       PTCLDY    57  54  91 S6        30.08R
PERU*          MOCLDY    64  61  90 SW3       30.07S
$$

ILZ005-006-012>014-019>023-011100-
NORTHEAST ILLINOIS

CITY           SKY/WX    TMP DP  RH WIND       PRES   REMARKS
CHICAGO-OHARE  PTCLDY    65  58  78 CALM      30.06R
CHICAGO-MIDWAY PTCLDY    67  62  84 W5        30.06S
AURORA         PTCLDY    58  55  90 CALM      30.08R FOG
LANSING*       CLEAR     60  59  97 CALM      30.08R FOG
JOLIET*        CLOUDY    63  62  96 CALM      30.08R
WAUKEGAN       CLEAR     63  57  81 SW3       30.05R
DUPAGE AIRPORT CLEAR     60  58  92 CALM      30.06S
KANKAKEE*      CLEAR     59  58  96 CALM      30.09S
WHEELING       CLEAR     65  58  78 CALM      30.07R
MORRIS*        MOCLDY    62  62 100 CALM      30.07R FOG
ROMEOVILLE*    LGT RAIN  63  62  98 W7        30.08R
NORTHERLY ISL    N/A     69  60  73 W5          N/A
$$

LMZ740>746-011100-
SOUTHERN LAKE MICHIGAN

STATION/POSITION SKY/WX   TEMP    WIND        PRES    VSBY  WAVE
                          AIR SEA DIR/SP/G                  HT/PER
                          (F)     (DEG/KT/KT) (MB)    (MI)  (FT/S)
SOUTHERN BUOY              64 62  250/  6/  8 1017.2R         0
WAUKEGAN HARBOR            67     270/  7/ 10   N/A
HARRISON CRIB              71     260/ 11/ 12   N/A
BURNHAM HARBOR             69     260/  6/  6   N/A
CALUMET HARBOR             67     230/  3/  4 1016.7R
BURNS HARBOR               68     200/  6/  7   N/A
MICHIGAN CITY              67     170/  6/  8   N/A
MICHIGAN CITY 6N           68 69  210/  6/  8   N/A           1
ST. JOSEPH                 69 69  190/  6/  8   N/A           1
$$

ILZ025>027-034>036-040-047-049-050-058-095>099-011100-
WEST-CENTRAL ILLINOIS

CITY           SKY/WX    TMP DP  RH WIND       PRES   REMARKS
QUINCY         PTCLDY    63  59  87 SE6       30.06S
GALESBURG*     CLOUDY    64  62  96 S5        30.07S
MACOMB*        MOCLDY    60  59  97 CALM      30.09S
JACKSONVILLE*  CLEAR     60  58  92 E3        30.08S
PITTSFIELD*    CLEAR     59  56  91 CALM      30.08S
$$

ILZ028>032-037-038-041>044-048-051>054-059>061-011100-
CENTRAL ILLINOIS

CITY           SKY/WX    TMP DP  RH WIND       PRES   REMARKS
PONTIAC        MOCLDY    61  61 100 CALM      30.07S FOG
DECATUR        PTCLDY    60  56  86 CALM      30.08S
PEORIA         CLOUDY    68  63  84 CALM      30.08R
LACON*         MOCLDY    63  62  94 CALM      30.06S
LINCOLN*       MOCLDY    62  59  91 CALM      30.06R
SPRINGFIELD    PTCLDY    60  58  92 CALM      30.09R FOG
TAYLORVILLE    PTCLDY    59  57  94 S3        30.08R
$$

ILZ033-039-045-046-055>057-062-063-011100-
EAST-CENTRAL ILLINOIS

CITY           SKY/WX    TMP DP  RH WIND       PRES   REMARKS
CHAMPAIGN      CLOUDY    63  61  93 E5        30.09R
DANVILLE*      PTCLDY    56  56  98 CALM      30.06S FOG
RANTOUL*       CLOUDY    63  58  85 CALM      30.09S
MATTOON          N/A     66  61  84 SW6       30.08R
PARIS*         PTCLDY    57  56  99 CALM      30.10S FOG
$$

ILZ079-100>102-011100-
SOUTHWEST ILLINOIS

CITY           SKY/WX    TMP DP  RH WIND       PRES   REMARKS
ALTON          CLEAR     60  60 100 CALM      30.08R FOG
BELLEVILLE     MOCLDY    62  62 100 CALM      30.06S FOG
CAHOKIA*       CLEAR     60  59  96 CALM      30.07S FOG
SPARTA*        CLEAR     63  63 100 CALM      30.09R
$$

ILZ064>066-069>071-074>076-080>082-084>086-088>090-092>094-011100-
SOUTH-CENTRAL ILLINOIS

CITY           SKY/WX    TMP DP  RH WIND       PRES   REMARKS
CARBONDALE     FOG       60  59  96 CALM      30.08R VSB 1/4
CAIRO*         CLOUDY    65  63  93 CALM      30.07S FOG
EFFINGHAM*     CLEAR     60  57  89 CALM      30.09R
MARION         FOG       63  61  94 CALM      30.09R VSB 1/4
MT. VERNON     CLEAR     57  54  88 CALM      30.09S
CENTRALIA*       N/A     57  56  94 CALM      30.08S FOG
SALEM*         FOG       62  61  98 CALM      30.09R VSB 1
METROPOLIS*    MOCLDY    60  59  96 CALM      30.07R FOG
$$

ILZ067-068-072-073-078-083-087-091-011100-
SOUTHEAST ILLINOIS

CITY           SKY/WX    TMP DP  RH WIND       PRES   REMARKS
LAWRENCEVILLE  FOG       61  60  97 CALM      30.09R VSB 3/4
FLORA*         CLEAR     56  56  98 CALM      30.09R FOG
FAIRFIELD*     CLEAR     59  57  94 CALM      30.09R FOG
HARRISBURG*    FOG       61  61 100 CALM      30.09S VSB 1/4
ROBINSON*      FOG       58  57  99 CALM      30.10R VSB 1/2
CARMI*         FOG       63  63 100 CALM      30.08R VSB 1/2
$$

ABBREVIATIONS USED IN REMARKS
   TC - TEMPERATURE IN CELSIUS
  WCI - WIND CHILL INDEX
   HX - HEAT INDEX
  VSB - VISIBILITY
$$




USA.gov is the U.S. government's official web portal to all federal, state and local government web resources and services.